This is the latest recevied weather packets stored in our database for station/object N3LF. If no packets are shown the sender has not sent any weather packets the latest 10 day(s).
| Time | Temp. | Humidity | Pressure | Rain* | Wind** | Luminosity | Snow |
|---|---|---|---|---|---|---|---|
| 1777904234 | 20° C | 65% | 1015.9 hPa | 0 mm | - | 431 W/m² | - |
| 1777903931 | 20° C | 64% | 1016 hPa | 0 mm | - | 369 W/m² | - |
| 1777903628 | 19.44° C | 64% | 1015.9 hPa | 0 mm | - | 414 W/m² | - |
| 1777903323 | 19.44° C | 65% | 1016 hPa | 0 mm | - | 389 W/m² | - |
| 1777903021 | 18.89° C | 67% | 1016.1 hPa | 0 mm | - | 378 W/m² | - |
| 1777902717 | 18.89° C | 65% | 1016.1 hPa | 0 mm | - | 304 W/m² | - |
| 1777902415 | 18.33° C | 67% | 1016.2 hPa | 0 mm | - | 309 W/m² | - |
| 1777902111 | 18.33° C | 67% | 1016.1 hPa | 0 mm | - | 337 W/m² | - |
| 1777901810 | 18.89° C | 67% | 1016.2 hPa | 0 mm | - | 321 W/m² | - |
| 1777901507 | 17.78° C | 66% | 1016 hPa | 0 mm | - | 284 W/m² | - |
| 1777901204 | 17.78° C | 68% | 1016.1 hPa | 0 mm | - | 270 W/m² | - |
| 1777900901 | 17.22° C | 71% | 1016.1 hPa | 0 mm | - | 259 W/m² | - |
| 1777900599 | 17.22° C | 70% | 1016.2 hPa | 0 mm | - | 246 W/m² | - |
| 1777900296 | 16.67° C | 73% | 1016.2 hPa | 0 mm | - | 180 W/m² | - |
| 1777899992 | 17.22° C | 71% | 1016.1 hPa | 0 mm | - | 182 W/m² | - |
| 1777899689 | 16.67° C | 69% | 1016.1 hPa | 0 mm | - | 203 W/m² | - |
| 1777899386 | 16.67° C | 71% | 1016.2 hPa | 0 mm | - | 219 W/m² | - |
| 1777899084 | 16.11° C | 73% | 1015.9 hPa | 0 mm | - | 205 W/m² | - |
| 1777898781 | 16.11° C | 72% | 1016 hPa | 0 mm | - | 192 W/m² | - |
| 1777898478 | 16.11° C | 73% | 1016 hPa | 0 mm | - | 145 W/m² | - |
| 1777898176 | 15.56° C | 74% | 1016.1 hPa | 0 mm | - | 160 W/m² | - |
| 1777897873 | 15.56° C | 75% | 1015.9 hPa | 0 mm | - | 153 W/m² | - |
| 1777897569 | 15° C | 76% | 1016.2 hPa | 0 mm | - | 139 W/m² | - |
| 1777897265 | 14.44° C | 78% | 1016 hPa | 0 mm | - | 122 W/m² | - |
| 1777896961 | 14.44° C | 78% | 1016 hPa | 0 mm | - | 99 W/m² | - |
* Rain latest hour (hover to see other rain measurements)
** Current wind speed in m/s (hover to see current wind gust speed)